Back to catalog

STARLINK-37112

AliveCommunicationsVLEO
NORAD 68707·PAYLOAD·🇺🇸 United States

Launched Apr 14, 2026 from Cape Canaveral Space Force Station

Loading…

Next Passes (next 24 hours)

TLE

FreshSource: CelesTrak SupGP

Epoch: Sep 14, 2026, 14:31 UTC

1 68707C 26081J   26257.60534722 -.00030744  00000+0 -90877-3 0  2576
2 68707  53.1572 233.4696 0001225  87.4893 175.8521 15.34391122    16

Track STARLINK-37112 in real time with AllMySat

Download on the App Store